CZ-3B R/B (44077 NORAD) Tracking and Keplerian Element Data

This shows tracking and keplerian element data for the satellite.

Feedback or suggestion? Click here.




ElementValue
Catalog44077
NameCZ-3B R/B
Epoch Orbit67
Epoch Day119.37140911
Epoch Year2019
RAAN53.3679
Inclination27.1947
Eccentricity0.7252157
Argument of Perigee197.0282
Mean Anonmoly111.465
Mean Motion2.35202994
Decay Rate0.0002113
L11 44077U 19017B 19119.37140911 .00021130 -16249-6 10834-2 0 9991
L22 44077 27.1947 53.3679 7252157 197.0282 111.4650 2.35202994 672



Live tracking and technical data element details for CZ-3B R/B (NORAD 44077). CZ-3B R/B can be tracked NOW for your location showing map with azimuth and elevation plus other details from your city location.







IsCatalogInMostPopularTable: catalog: 44077, numindb: 200
Update: records affected: 1



GetName: 44077 CZ-3B R/B

Hit Count: updated at: Sun, 28 May 2023 05:58:59 GMT